Weather in Starotomnikovo

Russia / Tambov Oblast     53°43′37″N   41°53′50″E
temp.,
°C
wind,
m/s
gust,
m/s
humid.,
%
clouds,
%
prec.,
mm/h
press.,
hPa
HPBL,
m
27 february, sat
sat2700:00+2w5139095 0.0 1003697
03:00+1w5129198 0.1 1002795
06:00+1w61396100 0.1 1000739
09:00+1w71497100 0.3 10001062
12:00−5nw71185100 1.1 1002737
15:00−7nnw61184100 1.2 1006800
18:00−9nnw41089100 0.1 1009717
21:00−11nnw4992100 0.1 1012561
28 february, sun
sun2800:00−12nnw3894100 0.1 1012401
03:00−14nw269694 0.1 1014189
06:00−14nw249667 0.0 1015131
09:00−12nw259267 0.0 1015263
12:00−9nw348699 0.0 1015478
15:00−7nnw3487100 0.1 1016523
18:00−8nnw2493100 0.1 1016156
21:00−9nnw1296100 0.1 101990
1 march, mon
mon100:00−11ne119798 0.1 102021
03:00−12nnw119786 0.1 102221
06:00−13n119657 0.0 102320
09:00−10nnw119170 0.0 1025139
12:00−6wnw228272 0.0 1024413
15:00−5wsw248783 0.0 1024397
18:00−8sw359788 0.0 1023106
21:00−5sw4109493 0.1 1021404
2 march, tue
tue200:00−4sw51095100 0.1 1018391
03:00−2wsw61395100 0.6 1014626
06:000wsw61396100 1.2 1010733
09:000wnw61197100 1.6 1008813
12:00+1nw51088100 0.4 1008992
15:00+1nw6108798 0.6 1008936
18:00−2nw4128877 0.1 1009482
21:00−1nw5129085 0.1 1010777
3 march, wed
wed300:00−2nw51290100 0.3 1010758
03:00−3nw51093100 0.4 1011667
06:00−4nw51193100 0.2 1012599
09:00−3nw51090100 0.3 1013767
12:00−2nw61090100 0.1 1014858
15:00−2nw6981100 0.4 1015971
18:00−3nw41089100 0.1 1015740
21:00−3wnw41091100 0.1 1017598